Weather History for Sierra Vista, AZ

Change the Weather History Date:

Saturday, January 5, 2013

  Actual Average Record
Temperature  
Mean Temperature 42 °F -  
Max Temperature 55 °F 59 °F 71 °F (1987)
Min Temperature 28 °F 37 °F 21 °F (1990)
Degree Days  
Heating Degree Days 24    
Moisture  
Dew Point 20 °F    
Average Humidity 51    
Maximum Humidity 82    
Minimum Humidity 14    
Precipitation  
Precipitation 0.00 in - - ()
Sea Level Pressure  
Sea Level Pressure 30.28 in    
Wind  
Wind Speed 3 mph (SE)    
Max Wind Speed 10 mph    
Max Gust Speed -    
Visibility 10 miles    
Events      
Averages and records for this station are not official NWS values.
T = Trace of Precipitation, MM = Missing Value Source: NWS Daily Summary

Daily Weather History Graph

Daily Weather History Graph

Search for Another Location

Airport:

Trip Planner

Search our weather history database for the weather conditions in past years. The results will help you decide how hot, cold, wet, or windy it might be!

Date:

Astronomy

Jan. 05, 2013 Rise Set
Actual Time 7:21 AM MST 5:32 PM MST
Civil Twilight 6:55 AM MST 5:59 PM MST
Nautical Twilight 6:24 AM MST 6:29 PM MST
Astronomical Twilight 5:55 AM MST 6:58 PM MST
Moon 12:44 AM MST (1/5) 12:13 PM MST (1/5)
Length of Visible Light 11h 04m
Length of Day
10h 10m
Last Quarter, 43% of the Moon is Illuminated
Jan 5
Last Quarter
Jan 11
New
Jan 18
First Quarter
Jan 26
Full
Feb 3
Last Quarter

Hourly Weather History & Observations

Time (MST) Temp. Windchill Dew Point Humidity Pressure Visibility Wind Dir Wind Speed Gust Speed Precip Events Conditions
12:56 AM 32.0 °F - 24.1 °F 73% 30.28 in 10.0 mi Calm Calm - N/A   Clear
1:56 AM 30.0 °F - 24.1 °F 79% 30.28 in 10.0 mi Calm Calm - N/A   Clear
2:56 AM 30.0 °F 26.5 °F 24.1 °F 79% 30.27 in 10.0 mi South 3.5 mph - N/A   Clear
3:56 AM 30.9 °F 24.3 °F 25.0 °F 79% 30.27 in 10.0 mi SSE 6.9 mph - N/A   Clear
4:56 AM 30.0 °F 25.2 °F 24.1 °F 79% 30.27 in 10.0 mi ESE 4.6 mph - N/A   Clear
5:56 AM 30.9 °F - 25.0 °F 79% 30.29 in 10.0 mi Calm Calm - N/A   Clear
6:56 AM 30.0 °F - 25.0 °F 82% 30.32 in 10.0 mi Calm Calm - N/A   Clear
7:56 AM 28.0 °F 22.8 °F 23.0 °F 81% 30.36 in 10.0 mi West 4.6 mph - N/A   Clear
8:56 AM 36.0 °F - 25.0 °F 64% 30.34 in 10.0 mi Calm Calm - N/A   Clear
9:56 AM 39.0 °F 36.8 °F 27.0 °F 62% 30.34 in 10.0 mi ENE 3.5 mph - N/A   Clear
10:56 AM 44.1 °F 41.5 °F 28.0 °F 53% 30.32 in 10.0 mi East 4.6 mph - N/A   Clear
11:56 AM 46.9 °F - 25.0 °F 42% 30.29 in 10.0 mi East 3.5 mph - N/A   Clear
12:56 PM 50.0 °F - 23.0 °F 35% 30.25 in 10.0 mi East 5.8 mph - N/A   Clear
1:56 PM 53.1 °F - 16.0 °F 23% 30.23 in 10.0 mi ESE 3.5 mph - N/A   Clear
2:56 PM 55.0 °F - 8.1 °F 15% 30.22 in 10.0 mi East 3.5 mph - N/A   Clear
3:56 PM 55.9 °F - 7.0 °F 14% 30.22 in 10.0 mi East 3.5 mph - N/A   Clear
4:56 PM 54.0 °F - 10.0 °F 17% 30.23 in 10.0 mi Calm Calm - N/A   Clear
5:56 PM 46.0 °F 43.9 °F 19.0 °F 34% 30.26 in 10.0 mi SSW 4.6 mph - N/A   Clear
6:56 PM 42.1 °F 39.2 °F 16.0 °F 35% 30.28 in 10.0 mi SE 4.6 mph - N/A   Clear
7:56 PM 37.9 °F - 19.0 °F 47% 30.30 in 10.0 mi North - - N/A   Clear
8:56 PM 37.9 °F 33.5 °F 18.0 °F 45% 30.27 in 10.0 mi South 5.8 mph - N/A   Clear
9:56 PM 39.9 °F 34.5 °F 15.1 °F 36% 30.26 in 10.0 mi South 8.1 mph - N/A   Clear
10:56 PM 37.9 °F 31.5 °F 16.0 °F 41% 30.25 in 10.0 mi SSE 9.2 mph - N/A   Clear
11:56 PM 39.0 °F 32.3 °F 15.1 °F 38% 30.23 in 10.0 mi South 10.4 mph - N/A   Clear